Location: Verona
(45.4500°N, 11.0000°E)
Time: 12:52:01
(UTC+02:00)

ISS - Visible Passes

Search period start: 11 May 2021 00:00
Search period end: 21 May 2021 00:00
Orbit: 417 x 422 km, 51.6° (Epoch: 11 May)

Date Brightness Start Highest point End Pass type
(mag) Time Alt. Az. Time Alt. Az. Time Alt. Az.
11 May -1.8 02:04:21 30° NNE 02:04:21 30° NNE 02:06:50 10° NE visible
11 May -1.7 03:38:07 10° NW 03:41:08 29° N 03:44:09 10° ENE visible
11 May -3.5 05:14:56 10° WNW 05:18:19 74° NNE 05:21:42 10° ESE visible
12 May -1.2 01:18:16 18° NE 01:18:16 18° NE 01:19:24 10° NE visible
12 May -1.6 02:51:12 14° NW 02:53:32 27° N 02:56:30 10° ENE visible
12 May -2.9 04:27:31 10° NW 04:30:50 52° NNE 04:34:09 10° E visible
13 May -1.6 02:05:02 24° NNW 02:05:57 27° N 02:08:55 10° ENE visible
13 May -2.3 03:40:06 10° NW 03:43:19 40° NNE 03:46:32 10° E visible
14 May -1.7 01:18:39 29° N 01:18:39 29° N 01:21:23 10° NE visible
14 May -2.0 02:52:40 10° NW 02:55:47 33° NNE 02:58:53 10° E visible
14 May -3.9 04:29:26 10° WNW 04:32:49 74° SSW 04:36:10 10° SE visible
14 May -1.7 21:16:25 10° SSE 21:17:30 11° SE 21:18:34 10° ESE visible
14 May -3.9 22:50:24 10° SW 22:53:46 72° SSE 22:55:36 24° ENE visible
15 May -2.0 00:27:41 10° W 00:30:47 33° NNW 00:33:54 10° NE visible
15 May -1.7 02:05:11 10° NW 02:08:12 29° N 02:11:13 10° ENE visible
15 May -3.6 03:42:00 10° WNW 03:45:23 75° NNE 03:48:45 10° ESE visible
15 May -3.5 22:03:09 10° SW 22:06:23 45° SE 22:09:38 10° ENE visible
15 May -2.4 23:40:03 10° W 23:43:14 40° NNW 23:46:28 10° NE visible
16 May -1.6 01:17:39 10° WNW 01:20:37 27° N 01:23:34 10° ENE visible
16 May -3.0 02:54:36 10° NW 02:57:54 52° NNE 03:01:14 10° E visible
16 May -2.9 04:31:37 10° WNW 04:34:36 29° SW 04:37:33 10° SSE visible
16 May -2.8 21:16:07 10° SSW 21:19:03 28° SE 21:22:00 10° ENE visible
16 May -3.0 22:52:26 10° W 22:55:43 53° NNW 22:59:03 10° NE visible
17 May -1.6 00:30:04 10° WNW 00:33:01 27° N 00:35:59 10° ENE visible
17 May -2.4 02:07:11 10° NW 02:10:23 40° NNE 02:13:36 10° E visible
17 May -3.6 03:44:00 10° WNW 03:47:15 46° SW 03:50:30 10° SE visible
17 May -3.6 22:04:53 10° WSW 22:08:15 75° NNW 22:11:38 10° ENE visible
17 May -1.7 23:42:25 10° WNW 23:45:25 29° N 23:48:26 10° NE visible
18 May -2.0 01:19:44 10° NW 01:22:50 33° NNE 01:22:58 33° NNE visible
18 May -3.8 21:17:28 10° SW 21:20:49 73° SSE 21:24:11 10° ENE visible
18 May -1.9 22:54:45 10° W 22:57:51 33° NNW 23:00:57 10° NE visible
19 May -1.8 00:32:15 10° NW 00:35:16 29° N 00:36:33 22° NE visible
19 May -1.0 02:09:03 10° WNW 02:09:28 13° WNW 02:09:28 13° WNW visible
19 May -2.3 22:07:06 10° W 22:10:18 40° NNW 22:13:31 10° NE visible
19 May -1.6 23:44:43 10° WNW 23:47:40 27° N 23:50:23 11° ENE visible
20 May -1.8 01:21:39 10° NW 01:23:19 26° NW 01:23:19 26° NW visible
20 May -2.8 21:19:29 10° W 21:22:47 52° NNW 21:26:05 10° NE visible
20 May -1.6 22:57:07 10° WNW 23:00:04 27° N 23:03:01 10° ENE visible
